CW9203 Weather Reports


Display with metric or nautical units.
time (UTC)temp
F
wind
direction
speed
MPH
gust
MPH
rain 1hr
in
rain 24hr
in
rain mn
in
humidity
%
barometer
mb
20200229134805 66 115 0.0 0.0 0.00 0.00 0.00 86 1020.1
20200229134304 66 133 0.0 0.0 0.00 0.00 0.00 86 1020.1
20200229133304 67 135 0.0 0.0 0.00 0.00 0.00 87 1020.2
20200229131304 67 143 0.0 0.0 0.00 0.00 0.00 87 1020.2
20200229130305 67 133 0.0 0.0 0.00 0.00 0.00 88 1020.2
20200229124804 67 131 0.0 0.0 0.00 0.00 0.00 87 1020.3
20200229124304 67 132 0.0 0.0 0.00 0.00 0.00 87 1020.3
20200229121304 67 143 0.0 0.0 0.00 0.00 0.00 88 1020.2
20200229120804 67 145 0.0 0.0 0.00 0.00 0.00 88 1020.2
20200229114804 67 157 0.0 0.0 0.00 0.00 0.00 88 1020.1
20200229114305 67 150 0.0 0.0 0.00 0.00 0.00 88 1020.1
20200229113805 67 154 0.0 0.0 0.00 0.00 0.00 88 1020.0
20200229113305 67 133 0.0 0.0 0.00 0.00 0.00 87 1019.9
20200229111804 68 131 0.0 0.0 0.00 0.00 0.00 87 1019.9
20200229111305 68 142 0.0 0.0 0.00 0.00 0.00 87 1019.9
20200229110818 68 139 0.0 0.0 0.00 0.00 0.00 87 1019.9
20200229110304 68 124 0.0 0.0 0.00 0.00 0.00 87 1019.8
20200229104304 68 173 0.0 0.0 0.00 0.00 0.00 87 1019.5
20200229103304 68 127 0.0 0.0 0.00 0.00 0.00 87 1019.4
20200229101804 68 175 0.0 0.0 0.00 0.00 0.00 87 1019.4
20200229100304 68 140 0.0 0.0 0.00 0.00 0.00 87 1019.3
20200229094804 68 151 0.0 0.0 0.00 0.00 0.00 87 1019.1
20200229094304 68 167 0.0 0.0 0.00 0.00 0.00 87 1019.1
20200229093805 68 147 0.0 0.0 0.00 0.00 0.00 88 1019.3
20200229093305 68 163 0.0 0.0 0.00 0.00 0.00 88 1019.2
20200229090304 68 161 0.0 0.0 0.00 0.00 0.00 88 1019.0
20200229084305 68 136 0.0 0.0 0.00 0.00 0.00 87 1018.9
20200229083805 68 134 0.0 0.0 0.00 0.00 0.00 87 1018.8
20200229081304 69 147 0.0 0.0 0.00 0.00 0.00 87 1018.5
20200229080805 69 333 0.0 0.0 0.00 0.00 0.00 88 1018.4
20200229080304 69 147 0.0 0.0 0.00 0.00 0.00 88 1018.3
20200229074805 69 146 0.0 0.0 0.00 0.00 0.00 88 1018.0
20200229073804 70 157 0.0 0.0 0.00 0.00 0.00 88 1018.0
20200229073304 70 149 0.0 0.0 0.00 0.00 0.00 88 1017.8
20200229071804 70 93 0.0 1.0 0.00 0.00 0.00 88 1017.8
20200229071305 70 151 0.0 0.0 0.00 0.00 0.00 88 1017.7
20200229070804 70 198 0.0 0.0 0.00 0.00 0.00 87 1017.6
20200229064804 71 190 0.0 0.0 0.00 0.00 0.00 87 1017.6
20200229064304 71 175 0.0 0.0 0.00 0.00 0.00 86 1017.6
20200229061804 72 161 0.0 0.0 0.00 0.00 0.00 86 1017.2
20200229060804 72 203 0.0 0.0 0.00 0.00 0.00 84 1017.2
20200229054804 73 154 0.0 3.0 0.00 0.00 0.00 84 1017.0
20200229053804 73 227 0.0 0.0 0.00 0.00 0.00 84 1016.8
20200229053305 74 196 0.0 0.0 0.00 0.00 0.00 83 1016.9
20200229051804 74 245 0.0 2.0 0.00 0.00 0.00 82 1016.8
20200229051305 74 317 0.0 1.0 0.00 0.00 0.00 81 1016.8
20200229050804 75 170 1.0 6.0 0.00 0.00 0.00 80 1016.7
20200229044804 77 191 0.0 1.0 0.00 0.00 0.00 77 1016.5
20200229044304 77 210 1.0 5.0 0.00 0.00 0.00 75 1016.5
20200229043304 80 221 0.0 6.0 0.00 0.00 0.00 64 1016.5
20200229041804 80 251 1.0 12.0 0.00 0.00 0.00 63 1016.3
20200229041304 80 250 1.0 10.0 0.00 0.00 0.00 64 1016.3
20200229040304 80 234 1.0 12.0 0.00 0.00 0.00 62 1016.2
20200229034805 81 255 1.0 7.0 0.00 0.00 0.00 61 1016.4
20200229033804 81 274 0.0 3.0 0.00 0.00 0.00 63 1016.3
20200229033304 80 255 0.0 0.0 0.00 0.00 0.00 63 1016.2
20200229031805 80 243 0.0 3.0 0.00 0.00 0.00 64 1016.2
20200229031304 80 266 0.0 1.0 0.00 0.00 0.00 64 1016.3
20200229030804 79 246 0.0 0.0 0.00 0.00 0.00 67 1016.3
20200229024304 78 229 0.0 0.0 0.00 0.00 0.00 70 1016.5
20200229023304 78 149 0.0 1.0 0.00 0.00 0.00 71 1016.6
20200229021805 78 143 0.0 0.0 0.00 0.00 0.00 69 1016.7
20200229021305 79 127 0.0 0.0 0.00 0.00 0.00 67 1016.7
20200229014804 80 257 1.0 9.0 0.00 0.00 0.00 61 1016.7
20200229014304 80 245 0.0 9.0 0.00 0.00 0.00 62 1016.7
20200229013804 81 262 1.0 7.0 0.00 0.00 0.00 60 1016.7
20200229013305 81 287 0.0 6.0 0.00 0.00 0.00 61 1016.7
20200229011804 79 273 0.0 1.0 0.00 0.00 0.00 64 1016.6
20200229011305 79 244 0.0 3.0 0.00 0.00 0.00 65 1016.7
20200229010304 78 173 0.0 0.0 0.00 0.00 0.00 68 1016.6
20200229004804 78 237 0.0 0.0 0.00 0.00 0.00 71 1016.7
20200229003804 78 255 0.0 8.0 0.00 0.00 0.00 67 1016.7
20200229003304 78 239 0.0 9.0 0.00 0.00 0.00 65 1016.7
20200229001804 78 249 0.0 3.0 0.00 0.00 0.00 67 1016.7
20200228234804 76 229 0.0 1.0 0.00 0.00 0.00 70 1017.0
20200228230805 76 282 0.0 0.0 0.00 0.00 0.00 71 1016.9
20200228224804 76 272 0.0 0.0 0.00 0.00 0.00 72 1016.9
20200228224304 75 259 0.0 0.0 0.00 0.00 0.00 74 1016.8
20200228223304 75 257 0.0 1.0 0.00 0.00 0.00 74 1016.7
20200228221304 75 271 0.0 0.0 0.00 0.00 0.00 75 1016.7
20200228220805 75 245 0.0 0.0 0.00 0.00 0.00 76 1016.8
20200228220304 75 242 0.0 1.0 0.00 0.00 0.00 76 1016.8
20200228214304 74 257 0.0 0.0 0.00 0.00 0.00 79 1016.7
20200228213304 74 259 0.0 0.0 0.00 0.00 0.00 78 1016.6
20200228211804 74 253 0.0 0.0 0.00 0.00 0.00 78 1016.4
20200228211304 74 258 0.0 0.0 0.00 0.00 0.00 78 1016.4
20200228210805 74 263 0.0 0.0 0.00 0.00 0.00 79 1016.4
20200228210304 73 256 0.0 0.0 0.00 0.00 0.00 80 1016.5
20200228204804 72 270 0.0 0.0 0.00 0.00 0.00 84 1016.4
20200228203804 71 282 0.0 0.0 0.00 0.00 0.00 85 1016.4
20200228203304 71 247 0.0 0.0 0.00 0.00 0.00 85 1016.5
20200228201805 71 249 0.0 0.0 0.00 0.00 0.00 85 1016.8
20200228200304 70 265 0.0 0.0 0.00 0.00 0.00 88 1016.7
20200228194804 69 270 0.0 0.0 0.00 0.00 0.00 90 1016.7
20200228194304 69 271 0.0 0.0 0.00 0.00 0.00 91 1016.6
20200228193804 68 275 0.0 0.0 0.00 0.00 0.00 92 1016.6
20200228191804 67 266 0.0 0.0 0.00 0.00 0.00 96 1016.6
20200228190804 65 266 0.0 0.0 0.00 0.00 0.00 95 1016.6
20200228190305 64 266 0.0 0.0 0.00 0.00 0.00 95 1016.5
20200228184804 64 265 0.0 0.0 0.00 0.00 0.00 96 1016.2
20200228183804 64 264 0.0 0.0 0.00 0.00 0.00 96 1016.2
20200228183304 63 264 0.0 0.0 0.00 0.00 0.00 96 1016.2
20200228181304 63 264 0.0 0.0 0.00 0.00 0.00 94 1016.0
20200228180304 63 266 0.0 0.0 0.00 0.00 0.00 95 1016.0
20200228174804 64 266 0.0 0.0 0.00 0.00 0.00 95 1015.8
20200228174304 64 266 0.0 0.0 0.00 0.00 0.00 95 1015.7
20200228173804 64 266 0.0 0.0 0.00 0.00 0.00 95 1015.6
20200228173304 63 266 0.0 0.0 0.00 0.00 0.00 96 1015.5
20200228171805 62 265 0.0 0.0 0.00 0.00 0.00 94 1015.4
20200228171304 63 265 0.0 0.0 0.00 0.00 0.00 94 1015.4
20200228170804 63 266 0.0 0.0 0.00 0.00 0.00 94 1015.3
20200228170304 63 265 0.0 0.0 0.00 0.00 0.00 95 1015.3
20200228164804 63 266 0.0 0.0 0.00 0.00 0.00 94 1015.1
20200228163804 63 266 0.0 0.0 0.00 0.00 0.00 94 1015.0
20200228163305 63 266 0.0 0.0 0.00 0.00 0.00 93 1015.0
20200228161804 63 266 0.0 0.0 0.00 0.00 0.00 93 1014.8
20200228161304 63 266 0.0 0.0 0.00 0.00 0.00 93 1014.8
20200228160804 64 266 0.0 0.0 0.00 0.00 0.00 93 1014.8
20200228160304 64 266 0.0 0.0 0.00 0.00 0.00 92 1014.9
20200228154304 64 265 0.0 0.0 0.00 0.00 0.00 93 1014.9
20200228153804 64 266 0.0 0.0 0.00 0.00 0.00 93 1014.9
20200228153305 65 266 0.0 0.0 0.00 0.00 0.00 92 1015.0
20200228151804 65 266 0.0 0.0 0.00 0.00 0.00 93 1015.0
20200228151304 65 266 0.0 0.0 0.00 0.00 0.00 92 1015.0
20200228150805 65 266 0.0 0.0 0.00 0.00 0.00 92 1015.1
20200228150304 65 265 0.0 0.0 0.00 0.00 0.00 92 1015.0
20200228144304 66 265 0.0 0.0 0.00 0.00 0.00 91 1015.0
20200228143805 66 266 0.0 0.0 0.00 0.00 0.00 91 1014.9
20200228143304 66 266 0.0 0.0 0.00 0.00 0.00 91 1015.0
20200228141804 66 266 0.0 0.0 0.00 0.00 0.00 91 1015.0
20200228140305 66 266 0.0 0.0 0.00 0.00 0.00 90 1015.1